Delta, CO

11:42 AM MDT on October 19, 2017 (GMT -0600)
Delta

Weather History for KAJZ - June, 2014

Change the Weather History Date:

Monday, June 23, 2014

  Actual Average (KMTJ) Record (KMTJ)
Temperature  
Mean Temperature 73 °F -  
Max Temperature 93 °F 85 °F 97 °F (2007)
Min Temperature 53 °F 51 °F 46 °F (2004)
Cooling Degree Days 8    
Growing Degree Days 23 (Base 50)    
Moisture  
Dew Point 32 °F    
Average Humidity 25    
Maximum Humidity 48    
Minimum Humidity 8    
Precipitation  
Precipitation 0.00 in - - ()
Sea Level Pressure  
Sea Level Pressure 30.03 in    
Wind  
Wind Speed 6 mph (East)    
Max Wind Speed 20 mph    
Max Gust Speed 26 mph    
Visibility 6 miles    
Events      
Averages and records for this station are not official NWS values.
T = Trace of Precipitation, MM = Missing Value Source: NWS Daily Summary

Daily Weather History Graph

Daily Weather History Graph

Search for Another Location

Airport or City:

Trip Planner

Search our weather history database for the weather conditions in past years. The results will help you decide how hot, cold, wet, or windy it might be!

Date:

Astronomy

Jun. 23, 2014 Rise Set
Actual Time 5:47 AM MDT 8:41 PM MDT
Civil Twilight 5:15 AM MDT 9:13 PM MDT
Nautical Twilight 4:35 AM MDT 9:53 PM MDT
Astronomical Twilight 3:49 AM MDT 10:39 PM MDT
Moon 3:14 AM MDT (6/23) 5:26 PM MDT (6/23)
Length of Visible Light 15h 57m
Length of Day
14h 53m
Waning Crescent, 12% of the Moon is Illuminated
Jun 23
Waning Crescent
Jun 27
New
Jul 5
First Quarter
Jul 12
Full
Jul 18
Last Quarter

Hourly Weather History & Observations

Time (MDT) Temp. Dew Point Humidity Pressure Visibility Wind Dir Wind Speed Gust Speed Precip Events Conditions
12:15 AM 65.3 °F 29.1 °F 26% 30.00 in 5.0 mi East 6.9 mph - N/A   Haze
12:35 AM 65.1 °F 30.4 °F 27% 30.00 in 4.0 mi East 6.9 mph - N/A   Haze
12:55 AM 64.0 °F 31.8 °F 30% 30.01 in 5.0 mi East 5.8 mph - N/A   Haze
1:15 AM 63.0 °F 32.5 °F 32% 30.01 in 3.0 mi East 5.8 mph - N/A   Haze
1:35 AM 60.4 °F 34.5 °F 38% 30.01 in 4.0 mi Calm Calm - N/A   Haze
1:55 AM 61.3 °F 33.4 °F 35% 30.01 in 3.0 mi Calm Calm - N/A   Haze
2:15 AM 60.1 °F 34.0 °F 38% 30.02 in 4.0 mi NE 5.8 mph - N/A   Haze
2:35 AM 60.4 °F 32.0 °F 34% 30.02 in 3.0 mi ENE 6.9 mph - N/A   Haze
2:55 AM 59.9 °F 35.4 °F 40% 30.02 in 4.0 mi NE 8.1 mph - N/A   Haze
3:15 AM 61.3 °F 32.2 °F 33% 30.02 in 3.0 mi ENE 5.8 mph - N/A   Haze
3:35 AM 61.2 °F 32.5 °F 34% 30.03 in 4.0 mi East 5.8 mph - N/A   Haze
3:55 AM 59.0 °F 31.3 °F 35% 30.03 in 3.0 mi East 3.5 mph - N/A   Haze
4:15 AM 55.4 °F 31.1 °F 40% 30.04 in 3.0 mi NE 5.8 mph - N/A   Haze
4:35 AM 56.1 °F 32.4 °F 41% 30.03 in 3.0 mi NNE 6.9 mph - N/A   Haze
4:55 AM 55.4 °F 33.1 °F 43% 30.03 in 4.0 mi NNE 4.6 mph - N/A   Haze
5:15 AM 53.8 °F 34.7 °F 48% 30.03 in 4.0 mi NE 3.5 mph - N/A   Haze
5:35 AM 55.2 °F 30.2 °F 38% 30.04 in 5.0 mi East 3.5 mph - N/A   Haze
5:55 AM 53.4 °F 31.5 °F 43% 30.05 in 3.0 mi Calm Calm - N/A   Haze
6:15 AM 53.2 °F 32.5 °F 45% 30.06 in 3.0 mi Calm Calm - N/A   Haze
6:35 AM 54.5 °F 34.7 °F 47% 30.06 in 4.0 mi NNE 4.6 mph - N/A   Haze
6:55 AM 58.6 °F 34.3 °F 40% 30.07 in 5.0 mi East 3.5 mph - N/A   Haze
7:15 AM 59.2 °F 34.3 °F 39% 30.07 in 5.0 mi Calm Calm - N/A   Haze
7:35 AM 59.9 °F 34.2 °F 38% 30.08 in 5.0 mi Calm Calm - N/A   Haze
7:55 AM 62.6 °F 34.9 °F 36% 30.08 in 7.0 mi NE 4.6 mph - N/A   Clear
8:15 AM 65.3 °F 34.7 °F 32% 30.08 in 5.0 mi ENE 5.8 mph - N/A   Haze
8:35 AM 66.6 °F 35.4 °F 32% 30.08 in 7.0 mi East 4.6 mph - N/A   Clear
8:55 AM 69.8 °F 34.9 °F 28% 30.08 in 7.0 mi East 8.1 mph - N/A   Clear
9:15 AM 71.6 °F 35.4 °F 27% 30.08 in 7.0 mi ESE 3.5 mph - N/A   Clear
9:35 AM 72.9 °F 36.0 °F 26% 30.07 in 10.0 mi East 4.6 mph - N/A   Clear
9:55 AM 74.3 °F 36.0 °F 25% 30.07 in 7.0 mi Calm Calm - N/A   Clear
10:15 AM 75.4 °F 36.5 °F 24% 30.07 in 7.0 mi Calm Calm - N/A   Clear
10:35 AM 77.2 °F 35.4 °F 22% 30.06 in 10.0 mi SE 3.5 mph - N/A   Clear
10:55 AM 78.8 °F 35.8 °F 21% 30.07 in 10.0 mi West 4.6 mph - N/A   Clear
11:35 AM 83.5 °F 35.4 °F 18% 30.06 in 10.0 mi South 5.8 mph - N/A   Clear
11:55 AM 82.2 °F 36.3 °F 19% 30.05 in 7.0 mi Calm Calm - N/A   Clear
12:15 PM 86.2 °F 30.0 °F 13% 30.04 in 7.0 mi South 4.6 mph - N/A   Clear
12:35 PM 88.0 °F 30.4 °F 13% 30.04 in 7.0 mi SSE 5.8 mph - N/A   Clear
12:55 PM 89.1 °F 29.7 °F 12% 30.03 in 7.0 mi SSE 8.1 mph - N/A   Clear
1:15 PM 89.4 °F 30.2 °F 12% 30.02 in 7.0 mi South 5.8 mph - N/A   Clear
1:35 PM 90.7 °F 30.4 °F 12% 30.01 in 10.0 mi South 6.9 mph - N/A   Clear
1:55 PM 90.5 °F 28.9 °F 11% 30.00 in 10.0 mi SSE 5.8 mph - N/A   Clear
2:35 PM 93.0 °F 28.4 °F 10% 30.00 in 10.0 mi SSW 4.6 mph - N/A   Clear
3:15 PM 92.8 °F 23.7 °F 8% 29.98 in 10.0 mi West 4.6 mph - N/A   Clear
3:35 PM 91.8 °F 24.6 °F 9% 29.98 in 10.0 mi SW 3.5 mph 11.5 mph N/A   Clear
4:15 PM 92.8 °F 23.5 °F 8% 29.98 in 10.0 mi West 3.5 mph 17.3 mph N/A   Clear
4:35 PM 91.9 °F 24.6 °F 9% 29.98 in 10.0 mi WNW 12.7 mph - N/A   Clear
4:55 PM 91.9 °F 23.7 °F 9% 29.97 in 10.0 mi WNW 6.9 mph 20.7 mph N/A   Clear
5:15 PM 92.3 °F 25.2 °F 9% 29.97 in 10.0 mi NW 10.4 mph - N/A   Clear
5:35 PM 92.5 °F 25.3 °F 9% 29.97 in 10.0 mi NW 13.8 mph - N/A   Clear
5:55 PM 90.0 °F 27.0 °F 10% 29.97 in 10.0 mi North 10.4 mph - N/A   Clear
6:15 PM 90.5 °F 23.7 °F 9% 29.96 in 10.0 mi North 3.5 mph - N/A   Clear
6:35 PM 89.6 °F 22.8 °F 9% 29.97 in 10.0 mi South 5.8 mph - N/A   Clear
6:55 PM 86.2 °F 32.7 °F 15% 29.98 in 10.0 mi East 16.1 mph 25.3 mph N/A   Clear
7:15 PM 83.3 °F 35.6 °F 18% 29.98 in 7.0 mi East 19.6 mph 25.3 mph N/A   Clear
7:35 PM 81.5 °F 36.3 °F 20% 29.98 in 7.0 mi East 19.6 mph 26.5 mph N/A   Clear
7:55 PM 81.7 °F 36.5 °F 20% 30.00 in 7.0 mi East 15.0 mph 19.6 mph N/A   Clear
8:15 PM 80.4 °F 35.1 °F 19% 30.00 in 5.0 mi East 12.7 mph 18.4 mph N/A   Haze
8:35 PM 78.6 °F 35.8 °F 21% 30.01 in 5.0 mi East 3.5 mph - N/A   Haze
8:55 PM 77.2 °F 34.9 °F 22% 30.01 in 5.0 mi ENE 6.9 mph - N/A   Haze
9:15 PM 77.0 °F 34.7 °F 22% 30.02 in 5.0 mi East 8.1 mph - N/A   Haze
9:35 PM 75.9 °F 35.2 °F 23% 30.02 in 5.0 mi NNE 9.2 mph - N/A   Haze
9:55 PM 75.2 °F 35.2 °F 23% 30.03 in 5.0 mi SE 6.9 mph - N/A   Haze
10:15 PM 73.4 °F 34.7 °F 24% 30.05 in 5.0 mi ESE 5.8 mph - N/A   Haze
10:35 PM 71.4 °F 35.4 °F 27% 30.05 in 4.0 mi North 4.6 mph - N/A   Haze
10:55 PM 68.9 °F 38.3 °F 33% 30.06 in 5.0 mi NNE 3.5 mph - N/A   Haze
11:15 PM 69.8 °F 35.2 °F 28% 30.07 in 3.0 mi East 6.9 mph - N/A   Haze
11:35 PM 69.8 °F 36.1 °F 29% 30.07 in 5.0 mi East 4.6 mph - N/A   Haze
11:55 PM 69.3 °F 37.4 °F 31% 30.08 in 5.0 mi East 6.9 mph - N/A   Haze